Tracking 35331 objects as of 16-Sep-2026
HD Live streaming from Space Station
objects crossing your sky now

OBJECT G

Track OBJECT G now!
10-day predictions


NORAD ID: 100362
Int'l Code: 2026-187G
Launch date: August 16, 2026
Source: People's Republic of China (PRC)
Launch site: Wenchang Satellite Launch Center (WSC)

Note: This is a ROCKET BODY
Your satellite tracking list
Your tracking list is empty




NASA's NSSDC Master Catalog

Two Line Element Set (TLE):
1 A0362U 26187G   26258.87537151 -.00000016  00000-0  13465-3 0  9995
2 A0362  49.9988 214.9785 0000420  22.6393 337.4516 13.72255920  4264
Source of the keplerian elements: AFSPC